sat.trackr.live / text

‹ back to catalog

UNKNOWN

NORAD 87280

UNKNOWN UNKNOWN UNKNOWN

§ Identity

Operator
Country
Launch date
Launch site
Launch vehicle
Mass (kg)
RCS (m²)

External: N2YO · Heavens-Above

§ Orbital elements

Epoch: 2026-05-23T20:20:54.012768Z

Period
106.77 min
Inclination
64.6147°
Eccentricity
0.0124651
Mean motion
13.48711421 rev/d
Perigee alt
984.1 km
Apogee alt
1,169.9 km
Semi-major
7,455.1 km
B*
7.0504e-4
RAAN
194.3873°
Arg perigee
228.3953°
Mean anomaly
130.6353°
Rev number
55,571

§ Raw data

UNKNOWN1 87280U          26143.84784737  .00000378  00000+0  70504-3 0  99952 87280  64.6147 194.3873 0124651 228.3953 130.6353 13.48711421555717

JSON: /api/v1/satellites/87280 · /tle

For live sub-satellite position, see the globe view (requires WebGL).

§ Visibility from observer

Set your observer location to see the next 7 days of passes ≥ 10°. The values pass through the URL so the page stays shareable.

No JS? Fill the form by hand. The geolocation button needs JavaScript.